Index of /20260506/WXO-DD/model_rdps/10km/00/024
Name Last modified Size Description
Parent Directory -
20260506T00Z_MSC_RDPS_AbsoluteVorticity_IsbL-0250_RLatLon0.09_PT024H.grib2 2026-05-06 02:48 589K
20260506T00Z_MSC_RDPS_AbsoluteVorticity_IsbL-0500_RLatLon0.09_PT024H.grib2 2026-05-06 02:48 555K
20260506T00Z_MSC_RDPS_AbsoluteVorticity_IsbL-0700_RLatLon0.09_PT024H.grib2 2026-05-06 02:48 752K
20260506T00Z_MSC_RDPS_AbsoluteVorticity_IsbL-0850_RLatLon0.09_PT024H.grib2 2026-05-06 02:48 778K
20260506T00Z_MSC_RDPS_AirTemp_AGL-120m_RLatLon0.09_PT024H.grib2 2026-05-06 02:48 371K
20260506T00Z_MSC_RDPS_AirTemp_AGL-2m_RLatLon0.09_PT024H.grib2 2026-05-06 02:48 620K
20260506T00Z_MSC_RDPS_AirTemp_AGL-40m_RLatLon0.09_PT024H.grib2 2026-05-06 02:48 398K
20260506T00Z_MSC_RDPS_AirTemp_AGL-80m_RLatLon0.09_PT024H.grib2 2026-05-06 02:48 392K
20260506T00Z_MSC_RDPS_AirTemp_IsbL-0001_RLatLon0.09_PT024H.grib2 2026-05-06 02:48 304K
20260506T00Z_MSC_RDPS_AirTemp_IsbL-0005_RLatLon0.09_PT024H.grib2 2026-05-06 02:48 285K
20260506T00Z_MSC_RDPS_AirTemp_IsbL-0010_RLatLon0.09_PT024H.grib2 2026-05-06 02:48 297K
20260506T00Z_MSC_RDPS_AirTemp_IsbL-0020_RLatLon0.09_PT024H.grib2 2026-05-06 02:48 316K
20260506T00Z_MSC_RDPS_AirTemp_IsbL-0030_RLatLon0.09_PT024H.grib2 2026-05-06 02:48 333K
20260506T00Z_MSC_RDPS_AirTemp_IsbL-0050_RLatLon0.09_PT024H.grib2 2026-05-06 02:48 312K
20260506T00Z_MSC_RDPS_AirTemp_IsbL-0100_RLatLon0.09_PT024H.grib2 2026-05-06 02:48 418K
20260506T00Z_MSC_RDPS_AirTemp_IsbL-0150_RLatLon0.09_PT024H.grib2 2026-05-06 02:48 407K
20260506T00Z_MSC_RDPS_AirTemp_IsbL-0175_RLatLon0.09_PT024H.grib2 2026-05-06 02:48 402K
20260506T00Z_MSC_RDPS_AirTemp_IsbL-0200_RLatLon0.09_PT024H.grib2 2026-05-06 02:48 409K
20260506T00Z_MSC_RDPS_AirTemp_IsbL-0225_RLatLon0.09_PT024H.grib2 2026-05-06 02:48 411K
20260506T00Z_MSC_RDPS_AirTemp_IsbL-0250_RLatLon0.09_PT024H.grib2 2026-05-06 02:48 417K
20260506T00Z_MSC_RDPS_AirTemp_IsbL-0275_RLatLon0.09_PT024H.grib2 2026-05-06 02:48 397K
20260506T00Z_MSC_RDPS_AirTemp_IsbL-0300_RLatLon0.09_PT024H.grib2 2026-05-06 02:48 406K
20260506T00Z_MSC_RDPS_AirTemp_IsbL-0350_RLatLon0.09_PT024H.grib2 2026-05-06 02:48 421K
20260506T00Z_MSC_RDPS_AirTemp_IsbL-0400_RLatLon0.09_PT024H.grib2 2026-05-06 02:48 425K
20260506T00Z_MSC_RDPS_AirTemp_IsbL-0450_RLatLon0.09_PT024H.grib2 2026-05-06 02:48 434K
20260506T00Z_MSC_RDPS_AirTemp_IsbL-0500_RLatLon0.09_PT024H.grib2 2026-05-06 02:48 443K
20260506T00Z_MSC_RDPS_AirTemp_IsbL-0550_RLatLon0.09_PT024H.grib2 2026-05-06 02:48 423K
20260506T00Z_MSC_RDPS_AirTemp_IsbL-0600_RLatLon0.09_PT024H.grib2 2026-05-06 02:48 440K
20260506T00Z_MSC_RDPS_AirTemp_IsbL-0650_RLatLon0.09_PT024H.grib2 2026-05-06 02:48 458K
20260506T00Z_MSC_RDPS_AirTemp_IsbL-0700_RLatLon0.09_PT024H.grib2 2026-05-06 02:48 483K
20260506T00Z_MSC_RDPS_AirTemp_IsbL-0750_RLatLon0.09_PT024H.grib2 2026-05-06 02:48 519K
20260506T00Z_MSC_RDPS_AirTemp_IsbL-0800_RLatLon0.09_PT024H.grib2 2026-05-06 02:48 448K
20260506T00Z_MSC_RDPS_AirTemp_IsbL-0850_RLatLon0.09_PT024H.grib2 2026-05-06 02:48 495K
20260506T00Z_MSC_RDPS_AirTemp_IsbL-0875_RLatLon0.09_PT024H.grib2 2026-05-06 02:48 513K
20260506T00Z_MSC_RDPS_AirTemp_IsbL-0900_RLatLon0.09_PT024H.grib2 2026-05-06 02:48 522K
20260506T00Z_MSC_RDPS_AirTemp_IsbL-0925_RLatLon0.09_PT024H.grib2 2026-05-06 02:48 521K
20260506T00Z_MSC_RDPS_AirTemp_IsbL-0950_RLatLon0.09_PT024H.grib2 2026-05-06 02:48 517K
20260506T00Z_MSC_RDPS_AirTemp_IsbL-0970_RLatLon0.09_PT024H.grib2 2026-05-06 02:48 512K
20260506T00Z_MSC_RDPS_AirTemp_IsbL-0985_RLatLon0.09_PT024H.grib2 2026-05-06 02:48 503K
20260506T00Z_MSC_RDPS_AirTemp_IsbL-1000_RLatLon0.09_PT024H.grib2 2026-05-06 02:48 487K
20260506T00Z_MSC_RDPS_AirTemp_IsbL-1015_RLatLon0.09_PT024H.grib2 2026-05-06 02:48 488K
20260506T00Z_MSC_RDPS_Albedo_Sfc_RLatLon0.09_PT024H.grib2 2026-05-06 02:48 155K
20260506T00Z_MSC_RDPS_CAPE_Sfc_RLatLon0.09_PT024H.grib2 2026-05-06 02:48 1.7M
20260506T00Z_MSC_RDPS_CIN_Sfc_RLatLon0.09_PT024H.grib2 2026-05-06 02:48 1.3M
20260506T00Z_MSC_RDPS_CloudWater_EAtm_RLatLon0.09_PT024H.grib2 2026-05-06 02:48 223K
20260506T00Z_MSC_RDPS_ConvectivePrecip-Accum_Sfc_RLatLon0.09_PT024H.grib2 2026-05-06 02:48 769K
20260506T00Z_MSC_RDPS_DewPointDepression_AGL-2m_RLatLon0.09_PT024H.grib2 2026-05-06 02:48 415K
20260506T00Z_MSC_RDPS_DewPointDepression_IsbL-0001_RLatLon0.09_PT024H.grib2 2026-05-06 02:48 193
20260506T00Z_MSC_RDPS_DewPointDepression_IsbL-0005_RLatLon0.09_PT024H.grib2 2026-05-06 02:48 193
20260506T00Z_MSC_RDPS_DewPointDepression_IsbL-0010_RLatLon0.09_PT024H.grib2 2026-05-06 02:48 193
20260506T00Z_MSC_RDPS_DewPointDepression_IsbL-0020_RLatLon0.09_PT024H.grib2 2026-05-06 02:48 193
20260506T00Z_MSC_RDPS_DewPointDepression_IsbL-0030_RLatLon0.09_PT024H.grib2 2026-05-06 02:48 193
20260506T00Z_MSC_RDPS_DewPointDepression_IsbL-0050_RLatLon0.09_PT024H.grib2 2026-05-06 02:48 80K
20260506T00Z_MSC_RDPS_DewPointDepression_IsbL-0100_RLatLon0.09_PT024H.grib2 2026-05-06 02:48 112K
20260506T00Z_MSC_RDPS_DewPointDepression_IsbL-0150_RLatLon0.09_PT024H.grib2 2026-05-06 02:48 139K
20260506T00Z_MSC_RDPS_DewPointDepression_IsbL-0175_RLatLon0.09_PT024H.grib2 2026-05-06 02:48 181K
20260506T00Z_MSC_RDPS_DewPointDepression_IsbL-0200_RLatLon0.09_PT024H.grib2 2026-05-06 02:48 219K
20260506T00Z_MSC_RDPS_DewPointDepression_IsbL-0225_RLatLon0.09_PT024H.grib2 2026-05-06 02:48 249K
20260506T00Z_MSC_RDPS_DewPointDepression_IsbL-0250_RLatLon0.09_PT024H.grib2 2026-05-06 02:48 292K
20260506T00Z_MSC_RDPS_DewPointDepression_IsbL-0275_RLatLon0.09_PT024H.grib2 2026-05-06 02:48 305K
20260506T00Z_MSC_RDPS_DewPointDepression_IsbL-0300_RLatLon0.09_PT024H.grib2 2026-05-06 02:48 324K
20260506T00Z_MSC_RDPS_DewPointDepression_IsbL-0350_RLatLon0.09_PT024H.grib2 2026-05-06 02:48 332K
20260506T00Z_MSC_RDPS_DewPointDepression_IsbL-0400_RLatLon0.09_PT024H.grib2 2026-05-06 02:48 343K
20260506T00Z_MSC_RDPS_DewPointDepression_IsbL-0450_RLatLon0.09_PT024H.grib2 2026-05-06 02:48 344K
20260506T00Z_MSC_RDPS_DewPointDepression_IsbL-0500_RLatLon0.09_PT024H.grib2 2026-05-06 02:48 348K
20260506T00Z_MSC_RDPS_DewPointDepression_IsbL-0550_RLatLon0.09_PT024H.grib2 2026-05-06 02:48 359K
20260506T00Z_MSC_RDPS_DewPointDepression_IsbL-0600_RLatLon0.09_PT024H.grib2 2026-05-06 02:48 367K
20260506T00Z_MSC_RDPS_DewPointDepression_IsbL-0650_RLatLon0.09_PT024H.grib2 2026-05-06 02:48 370K
20260506T00Z_MSC_RDPS_DewPointDepression_IsbL-0700_RLatLon0.09_PT024H.grib2 2026-05-06 02:48 379K
20260506T00Z_MSC_RDPS_DewPointDepression_IsbL-0750_RLatLon0.09_PT024H.grib2 2026-05-06 02:48 401K
20260506T00Z_MSC_RDPS_DewPointDepression_IsbL-0800_RLatLon0.09_PT024H.grib2 2026-05-06 02:48 442K
20260506T00Z_MSC_RDPS_DewPointDepression_IsbL-0850_RLatLon0.09_PT024H.grib2 2026-05-06 02:48 475K
20260506T00Z_MSC_RDPS_DewPointDepression_IsbL-0875_RLatLon0.09_PT024H.grib2 2026-05-06 02:48 475K
20260506T00Z_MSC_RDPS_DewPointDepression_IsbL-0900_RLatLon0.09_PT024H.grib2 2026-05-06 02:48 468K
20260506T00Z_MSC_RDPS_DewPointDepression_IsbL-0925_RLatLon0.09_PT024H.grib2 2026-05-06 02:48 457K
20260506T00Z_MSC_RDPS_DewPointDepression_IsbL-0950_RLatLon0.09_PT024H.grib2 2026-05-06 02:48 444K
20260506T00Z_MSC_RDPS_DewPointDepression_IsbL-0970_RLatLon0.09_PT024H.grib2 2026-05-06 02:48 436K
20260506T00Z_MSC_RDPS_DewPointDepression_IsbL-0985_RLatLon0.09_PT024H.grib2 2026-05-06 02:48 433K
20260506T00Z_MSC_RDPS_DewPointDepression_IsbL-1000_RLatLon0.09_PT024H.grib2 2026-05-06 02:48 430K
20260506T00Z_MSC_RDPS_DewPointDepression_IsbL-1015_RLatLon0.09_PT024H.grib2 2026-05-06 02:48 418K
20260506T00Z_MSC_RDPS_DewPoint_AGL-2m_RLatLon0.09_PT024H.grib2 2026-05-06 02:48 310K
20260506T00Z_MSC_RDPS_DownwardLongwaveRadiationFlux-Accum_Sfc_RLatLon0.09_PT024H.grib2 2026-05-06 02:48 436K
20260506T00Z_MSC_RDPS_DownwardShortwaveRadiationFlux-Accum_NTAtm_RLatLon0.09_PT024H.grib2 2026-05-06 02:48 144K
20260506T00Z_MSC_RDPS_DownwardShortwaveRadiationFlux-Accum_Sfc_RLatLon0.09_PT024H.grib2 2026-05-06 02:48 645K
20260506T00Z_MSC_RDPS_FreezingRain-Accum12h_Sfc_RLatLon0.09_PT024H.grib2 2026-05-06 02:48 61K
20260506T00Z_MSC_RDPS_FreezingRain-Accum1h_Sfc_RLatLon0.09_PT024H.grib2 2026-05-06 02:48 16K
20260506T00Z_MSC_RDPS_FreezingRain-Accum24h_Sfc_RLatLon0.09_PT024H.grib2 2026-05-06 02:48 99K
20260506T00Z_MSC_RDPS_FreezingRain-Accum3h_Sfc_RLatLon0.09_PT024H.grib2 2026-05-06 02:48 19K
20260506T00Z_MSC_RDPS_FreezingRain-Accum6h_Sfc_RLatLon0.09_PT024H.grib2 2026-05-06 02:48 32K
20260506T00Z_MSC_RDPS_FreezingRain-Accum_Sfc_RLatLon0.09_PT024H.grib2 2026-05-06 02:48 112K
20260506T00Z_MSC_RDPS_GeopotentialHeight_IsbL-0001_RLatLon0.09_PT024H.grib2 2026-05-06 02:48 338K
20260506T00Z_MSC_RDPS_GeopotentialHeight_IsbL-0005_RLatLon0.09_PT024H.grib2 2026-05-06 02:48 334K
20260506T00Z_MSC_RDPS_GeopotentialHeight_IsbL-0010_RLatLon0.09_PT024H.grib2 2026-05-06 02:48 335K
20260506T00Z_MSC_RDPS_GeopotentialHeight_IsbL-0020_RLatLon0.09_PT024H.grib2 2026-05-06 02:48 302K
20260506T00Z_MSC_RDPS_GeopotentialHeight_IsbL-0030_RLatLon0.09_PT024H.grib2 2026-05-06 02:48 304K
20260506T00Z_MSC_RDPS_GeopotentialHeight_IsbL-0050_RLatLon0.09_PT024H.grib2 2026-05-06 02:48 305K
20260506T00Z_MSC_RDPS_GeopotentialHeight_IsbL-0100_RLatLon0.09_PT024H.grib2 2026-05-06 02:48 285K
20260506T00Z_MSC_RDPS_GeopotentialHeight_IsbL-0150_RLatLon0.09_PT024H.grib2 2026-05-06 02:48 227K
20260506T00Z_MSC_RDPS_GeopotentialHeight_IsbL-0175_RLatLon0.09_PT024H.grib2 2026-05-06 02:48 230K
20260506T00Z_MSC_RDPS_GeopotentialHeight_IsbL-0200_RLatLon0.09_PT024H.grib2 2026-05-06 02:48 233K
20260506T00Z_MSC_RDPS_GeopotentialHeight_IsbL-0225_RLatLon0.09_PT024H.grib2 2026-05-06 02:48 266K
20260506T00Z_MSC_RDPS_GeopotentialHeight_IsbL-0250_RLatLon0.09_PT024H.grib2 2026-05-06 02:48 267K
20260506T00Z_MSC_RDPS_GeopotentialHeight_IsbL-0275_RLatLon0.09_PT024H.grib2 2026-05-06 02:48 235K
20260506T00Z_MSC_RDPS_GeopotentialHeight_IsbL-0300_RLatLon0.09_PT024H.grib2 2026-05-06 02:48 236K
20260506T00Z_MSC_RDPS_GeopotentialHeight_IsbL-0350_RLatLon0.09_PT024H.grib2 2026-05-06 02:48 232K
20260506T00Z_MSC_RDPS_GeopotentialHeight_IsbL-0400_RLatLon0.09_PT024H.grib2 2026-05-06 02:48 228K
20260506T00Z_MSC_RDPS_GeopotentialHeight_IsbL-0450_RLatLon0.09_PT024H.grib2 2026-05-06 02:48 296K
20260506T00Z_MSC_RDPS_GeopotentialHeight_IsbL-0500_RLatLon0.09_PT024H.grib2 2026-05-06 02:48 291K
20260506T00Z_MSC_RDPS_GeopotentialHeight_IsbL-0550_RLatLon0.09_PT024H.grib2 2026-05-06 02:48 287K
20260506T00Z_MSC_RDPS_GeopotentialHeight_IsbL-0600_RLatLon0.09_PT024H.grib2 2026-05-06 02:48 284K
20260506T00Z_MSC_RDPS_GeopotentialHeight_IsbL-0650_RLatLon0.09_PT024H.grib2 2026-05-06 02:48 255K
20260506T00Z_MSC_RDPS_GeopotentialHeight_IsbL-0700_RLatLon0.09_PT024H.grib2 2026-05-06 02:48 335K
20260506T00Z_MSC_RDPS_GeopotentialHeight_IsbL-0750_RLatLon0.09_PT024H.grib2 2026-05-06 02:48 338K
20260506T00Z_MSC_RDPS_GeopotentialHeight_IsbL-0800_RLatLon0.09_PT024H.grib2 2026-05-06 02:48 345K
20260506T00Z_MSC_RDPS_GeopotentialHeight_IsbL-0850_RLatLon0.09_PT024H.grib2 2026-05-06 02:48 385K
20260506T00Z_MSC_RDPS_GeopotentialHeight_IsbL-0875_RLatLon0.09_PT024H.grib2 2026-05-06 02:48 388K
20260506T00Z_MSC_RDPS_GeopotentialHeight_IsbL-0900_RLatLon0.09_PT024H.grib2 2026-05-06 02:48 358K
20260506T00Z_MSC_RDPS_GeopotentialHeight_IsbL-0925_RLatLon0.09_PT024H.grib2 2026-05-06 02:48 362K
20260506T00Z_MSC_RDPS_GeopotentialHeight_IsbL-0950_RLatLon0.09_PT024H.grib2 2026-05-06 02:48 363K
20260506T00Z_MSC_RDPS_GeopotentialHeight_IsbL-0970_RLatLon0.09_PT024H.grib2 2026-05-06 02:48 368K
20260506T00Z_MSC_RDPS_GeopotentialHeight_IsbL-0985_RLatLon0.09_PT024H.grib2 2026-05-06 02:48 377K
20260506T00Z_MSC_RDPS_GeopotentialHeight_IsbL-1000_RLatLon0.09_PT024H.grib2 2026-05-06 02:48 389K
20260506T00Z_MSC_RDPS_GeopotentialHeight_IsbL-1015_RLatLon0.09_PT024H.grib2 2026-05-06 02:48 403K
20260506T00Z_MSC_RDPS_HighLowPressure_MSL_RLatLon0.09_PT024H.json 2026-05-06 02:38 20K
20260506T00Z_MSC_RDPS_Humidex_Sfc_RLatLon0.09_PT024H.grib2 2026-05-06 02:48 2.2M
20260506T00Z_MSC_RDPS_IcePellets-Accum12h_Sfc_RLatLon0.09_PT024H.grib2 2026-05-06 02:48 11K
20260506T00Z_MSC_RDPS_IcePellets-Accum1h_Sfc_RLatLon0.09_PT024H.grib2 2026-05-06 02:48 4.9K
20260506T00Z_MSC_RDPS_IcePellets-Accum24h_Sfc_RLatLon0.09_PT024H.grib2 2026-05-06 02:48 16K
20260506T00Z_MSC_RDPS_IcePellets-Accum3h_Sfc_RLatLon0.09_PT024H.grib2 2026-05-06 02:48 5.7K
20260506T00Z_MSC_RDPS_IcePellets-Accum6h_Sfc_RLatLon0.09_PT024H.grib2 2026-05-06 02:48 8.5K
20260506T00Z_MSC_RDPS_IcePellets-Accum_Sfc_RLatLon0.09_PT024H.grib2 2026-05-06 02:48 18K
20260506T00Z_MSC_RDPS_KIndex_Sfc_RLatLon0.09_PT024H.grib2 2026-05-06 02:48 2.5M
20260506T00Z_MSC_RDPS_LatentHeatNetFlux_Sfc_RLatLon0.09_PT024H.grib2 2026-05-06 02:48 360K
20260506T00Z_MSC_RDPS_LiftedIndex-MU-VT_IsbL-0500_RLatLon0.09_PT024H.grib2 2026-05-06 02:48 2.4M
20260506T00Z_MSC_RDPS_NetLongwaveRadiationFlux-Accum_Sfc_RLatLon0.09_PT024H.grib2 2026-05-06 02:48 578K
20260506T00Z_MSC_RDPS_NetShortwaveRadiationFlux-Accum_Sfc_RLatLon0.09_PT024H.grib2 2026-05-06 02:48 638K
20260506T00Z_MSC_RDPS_PlanetaryBoundaryLayerHeight_Sfc_RLatLon0.09_PT024H.grib2 2026-05-06 02:48 1.0M
20260506T00Z_MSC_RDPS_Precip-Accum12h_Sfc_RLatLon0.09_PT024H.grib2 2026-05-06 02:48 1.8M
20260506T00Z_MSC_RDPS_Precip-Accum1h_Sfc_RLatLon0.09_PT024H.grib2 2026-05-06 02:48 1.2M
20260506T00Z_MSC_RDPS_Precip-Accum24h_Sfc_RLatLon0.09_PT024H.grib2 2026-05-06 02:48 1.9M
20260506T00Z_MSC_RDPS_Precip-Accum3h_Sfc_RLatLon0.09_PT024H.grib2 2026-05-06 02:48 1.3M
20260506T00Z_MSC_RDPS_Precip-Accum6h_Sfc_RLatLon0.09_PT024H.grib2 2026-05-06 02:48 1.5M
20260506T00Z_MSC_RDPS_Precip-Accum_Sfc_RLatLon0.09_PT024H.grib2 2026-05-06 02:48 1.9M
20260506T00Z_MSC_RDPS_PrecipRate_Sfc_RLatLon0.09_PT024H.grib2 2026-05-06 02:48 161K
20260506T00Z_MSC_RDPS_PrecipType-Instant_Sfc_RLatLon0.09_PT024H.grib2 2026-05-06 02:48 559K
20260506T00Z_MSC_RDPS_Pressure-Trend3h_Sfc_RLatLon0.09_PT024H.grib2 2026-05-06 02:48 1.2M
20260506T00Z_MSC_RDPS_Pressure_MSL_RLatLon0.09_PT024H.grib2 2026-05-06 02:48 292K
20260506T00Z_MSC_RDPS_Pressure_PVU-1.5_RLatLon0.09_PT024H.grib2 2026-05-06 02:48 2.3M
20260506T00Z_MSC_RDPS_Pressure_PVU-1_RLatLon0.09_PT024H.grib2 2026-05-06 02:48 2.4M
20260506T00Z_MSC_RDPS_Pressure_PVU-2_RLatLon0.09_PT024H.grib2 2026-05-06 02:48 2.4M
20260506T00Z_MSC_RDPS_Pressure_Sfc_RLatLon0.09_PT024H.grib2 2026-05-06 02:48 497K
20260506T00Z_MSC_RDPS_RadiativeTemp_Sfc_RLatLon0.09_PT024H.grib2 2026-05-06 02:48 311K
20260506T00Z_MSC_RDPS_Rain-Accum12h_Sfc_RLatLon0.09_PT024H.grib2 2026-05-06 02:48 1.2M
20260506T00Z_MSC_RDPS_Rain-Accum1h_Sfc_RLatLon0.09_PT024H.grib2 2026-05-06 02:48 599K
20260506T00Z_MSC_RDPS_Rain-Accum24h_Sfc_RLatLon0.09_PT024H.grib2 2026-05-06 02:48 1.4M
20260506T00Z_MSC_RDPS_Rain-Accum3h_Sfc_RLatLon0.09_PT024H.grib2 2026-05-06 02:48 686K
20260506T00Z_MSC_RDPS_Rain-Accum6h_Sfc_RLatLon0.09_PT024H.grib2 2026-05-06 02:48 1.0M
20260506T00Z_MSC_RDPS_Rain-Accum_Sfc_RLatLon0.09_PT024H.grib2 2026-05-06 02:48 1.5M
20260506T00Z_MSC_RDPS_RelativeHumidity_AGL-2m_RLatLon0.09_PT024H.grib2 2026-05-06 02:48 1.0M
20260506T00Z_MSC_RDPS_RelativeHumidity_IsbL-0010_RLatLon0.09_PT024H.grib2 2026-05-06 02:48 587K
20260506T00Z_MSC_RDPS_RelativeHumidity_IsbL-0020_RLatLon0.09_PT024H.grib2 2026-05-06 02:48 658K
20260506T00Z_MSC_RDPS_RelativeHumidity_IsbL-0030_RLatLon0.09_PT024H.grib2 2026-05-06 02:48 599K
20260506T00Z_MSC_RDPS_RelativeHumidity_IsbL-0050_RLatLon0.09_PT024H.grib2 2026-05-06 02:48 357K
20260506T00Z_MSC_RDPS_RelativeHumidity_IsbL-0100_RLatLon0.09_PT024H.grib2 2026-05-06 02:48 273K
20260506T00Z_MSC_RDPS_RelativeHumidity_IsbL-0150_RLatLon0.09_PT024H.grib2 2026-05-06 02:48 413K
20260506T00Z_MSC_RDPS_RelativeHumidity_IsbL-0175_RLatLon0.09_PT024H.grib2 2026-05-06 02:48 470K
20260506T00Z_MSC_RDPS_RelativeHumidity_IsbL-0200_RLatLon0.09_PT024H.grib2 2026-05-06 02:48 540K
20260506T00Z_MSC_RDPS_RelativeHumidity_IsbL-0225_RLatLon0.09_PT024H.grib2 2026-05-06 02:48 605K
20260506T00Z_MSC_RDPS_RelativeHumidity_IsbL-0250_RLatLon0.09_PT024H.grib2 2026-05-06 02:48 665K
20260506T00Z_MSC_RDPS_RelativeHumidity_IsbL-0275_RLatLon0.09_PT024H.grib2 2026-05-06 02:48 693K
20260506T00Z_MSC_RDPS_RelativeHumidity_IsbL-0300_RLatLon0.09_PT024H.grib2 2026-05-06 02:48 742K
20260506T00Z_MSC_RDPS_RelativeHumidity_IsbL-0350_RLatLon0.09_PT024H.grib2 2026-05-06 02:48 767K
20260506T00Z_MSC_RDPS_RelativeHumidity_IsbL-0400_RLatLon0.09_PT024H.grib2 2026-05-06 02:48 786K
20260506T00Z_MSC_RDPS_RelativeHumidity_IsbL-0450_RLatLon0.09_PT024H.grib2 2026-05-06 02:48 789K
20260506T00Z_MSC_RDPS_RelativeHumidity_IsbL-0500_RLatLon0.09_PT024H.grib2 2026-05-06 02:48 793K
20260506T00Z_MSC_RDPS_RelativeHumidity_IsbL-0550_RLatLon0.09_PT024H.grib2 2026-05-06 02:48 810K
20260506T00Z_MSC_RDPS_RelativeHumidity_IsbL-0600_RLatLon0.09_PT024H.grib2 2026-05-06 02:48 829K
20260506T00Z_MSC_RDPS_RelativeHumidity_IsbL-0650_RLatLon0.09_PT024H.grib2 2026-05-06 02:48 850K
20260506T00Z_MSC_RDPS_RelativeHumidity_IsbL-0700_RLatLon0.09_PT024H.grib2 2026-05-06 02:48 865K
20260506T00Z_MSC_RDPS_RelativeHumidity_IsbL-0750_RLatLon0.09_PT024H.grib2 2026-05-06 02:48 916K
20260506T00Z_MSC_RDPS_RelativeHumidity_IsbL-0800_RLatLon0.09_PT024H.grib2 2026-05-06 02:48 1.0M
20260506T00Z_MSC_RDPS_RelativeHumidity_IsbL-0850_RLatLon0.09_PT024H.grib2 2026-05-06 02:48 1.0M
20260506T00Z_MSC_RDPS_RelativeHumidity_IsbL-0875_RLatLon0.09_PT024H.grib2 2026-05-06 02:48 1.1M
20260506T00Z_MSC_RDPS_RelativeHumidity_IsbL-0900_RLatLon0.09_PT024H.grib2 2026-05-06 02:48 1.1M
20260506T00Z_MSC_RDPS_RelativeHumidity_IsbL-0925_RLatLon0.09_PT024H.grib2 2026-05-06 02:48 1.1M
20260506T00Z_MSC_RDPS_RelativeHumidity_IsbL-0950_RLatLon0.09_PT024H.grib2 2026-05-06 02:48 1.1M
20260506T00Z_MSC_RDPS_RelativeHumidity_IsbL-0970_RLatLon0.09_PT024H.grib2 2026-05-06 02:48 1.0M
20260506T00Z_MSC_RDPS_RelativeHumidity_IsbL-0985_RLatLon0.09_PT024H.grib2 2026-05-06 02:48 1.0M
20260506T00Z_MSC_RDPS_RelativeHumidity_IsbL-1000_RLatLon0.09_PT024H.grib2 2026-05-06 02:48 1.0M
20260506T00Z_MSC_RDPS_RelativeHumidity_IsbL-1015_RLatLon0.09_PT024H.grib2 2026-05-06 02:48 1.0M
20260506T00Z_MSC_RDPS_Runoff-Accum_Sfc_RLatLon0.09_PT024H.grib2 2026-05-06 02:48 54K
20260506T00Z_MSC_RDPS_SWEATIndex_Sfc_RLatLon0.09_PT024H.grib2 2026-05-06 02:48 2.4M
20260506T00Z_MSC_RDPS_SeeingIndex_EAtm_RLatLon0.09_PT024H.grib2 2026-05-06 02:48 1.0M
20260506T00Z_MSC_RDPS_SensibleHeatNetFlux_Sfc_RLatLon0.09_PT024H.grib2 2026-05-06 02:48 236K
20260506T00Z_MSC_RDPS_ShowalterIndex_IsbL-0500_RLatLon0.09_PT024H.grib2 2026-05-06 02:48 2.6M
20260506T00Z_MSC_RDPS_SkyTransparencyIndex_EAtm_RLatLon0.09_PT024H.grib2 2026-05-06 02:48 721K
20260506T00Z_MSC_RDPS_Snow-Accum12h_Sfc_RLatLon0.09_PT024H.grib2 2026-05-06 02:48 592K
20260506T00Z_MSC_RDPS_Snow-Accum1h_Sfc_RLatLon0.09_PT024H.grib2 2026-05-06 02:48 437K
20260506T00Z_MSC_RDPS_Snow-Accum24h_Sfc_RLatLon0.09_PT024H.grib2 2026-05-06 02:48 645K
20260506T00Z_MSC_RDPS_Snow-Accum3h_Sfc_RLatLon0.09_PT024H.grib2 2026-05-06 02:48 442K
20260506T00Z_MSC_RDPS_Snow-Accum6h_Sfc_RLatLon0.09_PT024H.grib2 2026-05-06 02:48 568K
20260506T00Z_MSC_RDPS_Snow-Accum_Sfc_RLatLon0.09_PT024H.grib2 2026-05-06 02:48 690K
20260506T00Z_MSC_RDPS_SnowDensity_Sfc_RLatLon0.09_PT024H.grib2 2026-05-06 02:48 173K
20260506T00Z_MSC_RDPS_SnowDepth_Sfc_RLatLon0.09_PT024H.grib2 2026-05-06 02:48 646K
20260506T00Z_MSC_RDPS_SoilTemp_DBS-0to10cm_RLatLon0.09_PT024H.grib2 2026-05-06 02:48 227K
20260506T00Z_MSC_RDPS_SoilTemp_Sfc_RLatLon0.09_PT024H.grib2 2026-05-06 02:48 263K
20260506T00Z_MSC_RDPS_SoilVolumetricIceContent_Sfc_RLatLon0.09_PT024H.grib2 2026-05-06 02:48 150K
20260506T00Z_MSC_RDPS_SoilVolumetricWaterContent_DBS-0to10cm_RLatLon0.09_PT024H.grib2 2026-05-06 02:48 280K
20260506T00Z_MSC_RDPS_SoilVolumetricWaterContent_DBS-0to1cm_RLatLon0.09_PT024H.grib2 2026-05-06 02:48 338K
20260506T00Z_MSC_RDPS_SpecificHumidity_AGL-120m_RLatLon0.09_PT024H.grib2 2026-05-06 02:48 492K
20260506T00Z_MSC_RDPS_SpecificHumidity_AGL-2m_RLatLon0.09_PT024H.grib2 2026-05-06 02:48 664K
20260506T00Z_MSC_RDPS_SpecificHumidity_AGL-40m_RLatLon0.09_PT024H.grib2 2026-05-06 02:48 498K
20260506T00Z_MSC_RDPS_SpecificHumidity_AGL-80m_RLatLon0.09_PT024H.grib2 2026-05-06 02:48 494K
20260506T00Z_MSC_RDPS_SpecificHumidity_IsbL-0001_RLatLon0.09_PT024H.grib2 2026-05-06 02:48 407K
20260506T00Z_MSC_RDPS_SpecificHumidity_IsbL-0005_RLatLon0.09_PT024H.grib2 2026-05-06 02:48 376K
20260506T00Z_MSC_RDPS_SpecificHumidity_IsbL-0010_RLatLon0.09_PT024H.grib2 2026-05-06 02:48 409K
20260506T00Z_MSC_RDPS_SpecificHumidity_IsbL-0020_RLatLon0.09_PT024H.grib2 2026-05-06 02:48 387K
20260506T00Z_MSC_RDPS_SpecificHumidity_IsbL-0030_RLatLon0.09_PT024H.grib2 2026-05-06 02:48 374K
20260506T00Z_MSC_RDPS_SpecificHumidity_IsbL-0050_RLatLon0.09_PT024H.grib2 2026-05-06 02:48 372K
20260506T00Z_MSC_RDPS_SpecificHumidity_IsbL-0100_RLatLon0.09_PT024H.grib2 2026-05-06 02:48 445K
20260506T00Z_MSC_RDPS_SpecificHumidity_IsbL-0150_RLatLon0.09_PT024H.grib2 2026-05-06 02:48 459K
20260506T00Z_MSC_RDPS_SpecificHumidity_IsbL-0175_RLatLon0.09_PT024H.grib2 2026-05-06 02:48 443K
20260506T00Z_MSC_RDPS_SpecificHumidity_IsbL-0200_RLatLon0.09_PT024H.grib2 2026-05-06 02:48 467K
20260506T00Z_MSC_RDPS_SpecificHumidity_IsbL-0225_RLatLon0.09_PT024H.grib2 2026-05-06 02:48 447K
20260506T00Z_MSC_RDPS_SpecificHumidity_IsbL-0250_RLatLon0.09_PT024H.grib2 2026-05-06 02:48 548K
20260506T00Z_MSC_RDPS_SpecificHumidity_IsbL-0275_RLatLon0.09_PT024H.grib2 2026-05-06 02:48 466K
20260506T00Z_MSC_RDPS_SpecificHumidity_IsbL-0300_RLatLon0.09_PT024H.grib2 2026-05-06 02:48 540K
20260506T00Z_MSC_RDPS_SpecificHumidity_IsbL-0350_RLatLon0.09_PT024H.grib2 2026-05-06 02:48 537K
20260506T00Z_MSC_RDPS_SpecificHumidity_IsbL-0400_RLatLon0.09_PT024H.grib2 2026-05-06 02:48 523K
20260506T00Z_MSC_RDPS_SpecificHumidity_IsbL-0450_RLatLon0.09_PT024H.grib2 2026-05-06 02:48 571K
20260506T00Z_MSC_RDPS_SpecificHumidity_IsbL-0500_RLatLon0.09_PT024H.grib2 2026-05-06 02:48 504K
20260506T00Z_MSC_RDPS_SpecificHumidity_IsbL-0550_RLatLon0.09_PT024H.grib2 2026-05-06 02:48 577K
20260506T00Z_MSC_RDPS_SpecificHumidity_IsbL-0600_RLatLon0.09_PT024H.grib2 2026-05-06 02:48 629K
20260506T00Z_MSC_RDPS_SpecificHumidity_IsbL-0650_RLatLon0.09_PT024H.grib2 2026-05-06 02:48 546K
20260506T00Z_MSC_RDPS_SpecificHumidity_IsbL-0700_RLatLon0.09_PT024H.grib2 2026-05-06 02:48 587K
20260506T00Z_MSC_RDPS_SpecificHumidity_IsbL-0750_RLatLon0.09_PT024H.grib2 2026-05-06 02:48 644K
20260506T00Z_MSC_RDPS_SpecificHumidity_IsbL-0800_RLatLon0.09_PT024H.grib2 2026-05-06 02:48 732K
20260506T00Z_MSC_RDPS_SpecificHumidity_IsbL-0850_RLatLon0.09_PT024H.grib2 2026-05-06 02:48 810K
20260506T00Z_MSC_RDPS_SpecificHumidity_IsbL-0875_RLatLon0.09_PT024H.grib2 2026-05-06 02:48 697K
20260506T00Z_MSC_RDPS_SpecificHumidity_IsbL-0900_RLatLon0.09_PT024H.grib2 2026-05-06 02:48 709K
20260506T00Z_MSC_RDPS_SpecificHumidity_IsbL-0925_RLatLon0.09_PT024H.grib2 2026-05-06 02:48 714K
20260506T00Z_MSC_RDPS_SpecificHumidity_IsbL-0950_RLatLon0.09_PT024H.grib2 2026-05-06 02:48 711K
20260506T00Z_MSC_RDPS_SpecificHumidity_IsbL-0970_RLatLon0.09_PT024H.grib2 2026-05-06 02:48 701K
20260506T00Z_MSC_RDPS_SpecificHumidity_IsbL-0985_RLatLon0.09_PT024H.grib2 2026-05-06 02:48 695K
20260506T00Z_MSC_RDPS_SpecificHumidity_IsbL-1000_RLatLon0.09_PT024H.grib2 2026-05-06 02:48 690K
20260506T00Z_MSC_RDPS_SpecificHumidity_IsbL-1015_RLatLon0.09_PT024H.grib2 2026-05-06 02:48 678K
20260506T00Z_MSC_RDPS_SpecificHumidity_Sfc_RLatLon0.09_PT024H.grib2 2026-05-06 02:48 335K
20260506T00Z_MSC_RDPS_StormRelativeHelicity_EtaL-10000_RLatLon0.09_PT024H.grib2 2026-05-06 02:48 1.1M
20260506T00Z_MSC_RDPS_StormSeverityIndex_EtaL-10000_RLatLon0.09_PT024H.grib2 2026-05-06 02:48 1.2M
20260506T00Z_MSC_RDPS_Thickness_IsbL-0850to0700_RLatLon0.09_PT024H.grib2 2026-05-06 02:48 174K
20260506T00Z_MSC_RDPS_Thickness_IsbL-1000to0500_RLatLon0.09_PT024H.grib2 2026-05-06 02:48 195K
20260506T00Z_MSC_RDPS_Thickness_IsbL-1000to0850_RLatLon0.09_PT024H.grib2 2026-05-06 02:48 182K
20260506T00Z_MSC_RDPS_TotalCloudCover_Sfc_RLatLon0.09_PT024H.grib2 2026-05-06 02:48 657K
20260506T00Z_MSC_RDPS_TotalTotalsIndex_Sfc_RLatLon0.09_PT024H.grib2 2026-05-06 02:48 2.4M
20260506T00Z_MSC_RDPS_UVIndex-ClearSky_Sfc_RLatLon0.09_PT024H.grib2 2026-05-06 02:48 194K
20260506T00Z_MSC_RDPS_UVIndex_Sfc_RLatLon0.09_PT024H.grib2 2026-05-06 02:48 405K
20260506T00Z_MSC_RDPS_UpwardLongwaveRadiationFlux_NTAtm_RLatLon0.09_PT024H.grib2 2026-05-06 02:48 490K
20260506T00Z_MSC_RDPS_UpwardShortwaveRadiationFlux_NTAtm_RLatLon0.09_PT024H.grib2 2026-05-06 02:48 348K
20260506T00Z_MSC_RDPS_VerticalVelocity_IsbL-0250_RLatLon0.09_PT024H.grib2 2026-05-06 02:48 679K
20260506T00Z_MSC_RDPS_VerticalVelocity_IsbL-0500_RLatLon0.09_PT024H.grib2 2026-05-06 02:48 540K
20260506T00Z_MSC_RDPS_VerticalVelocity_IsbL-0700_RLatLon0.09_PT024H.grib2 2026-05-06 02:48 589K
20260506T00Z_MSC_RDPS_VerticalVelocity_IsbL-0850_RLatLon0.09_PT024H.grib2 2026-05-06 02:48 835K
20260506T00Z_MSC_RDPS_VerticalWindShear_EtaL-6500_RLatLon0.09_PT024H.grib2 2026-05-06 02:48 1.2M
20260506T00Z_MSC_RDPS_WindChill_Sfc_RLatLon0.09_PT024H.grib2 2026-05-06 02:48 1.1M
20260506T00Z_MSC_RDPS_WindDir_AGL-10m_RLatLon0.09_PT024H.grib2 2026-05-06 02:48 938K
20260506T00Z_MSC_RDPS_WindDir_AGL-120m_RLatLon0.09_PT024H.grib2 2026-05-06 02:48 586K
20260506T00Z_MSC_RDPS_WindDir_AGL-40m_RLatLon0.09_PT024H.grib2 2026-05-06 02:48 610K
20260506T00Z_MSC_RDPS_WindDir_AGL-80m_RLatLon0.09_PT024H.grib2 2026-05-06 02:48 596K
20260506T00Z_MSC_RDPS_WindDir_IsbL-0001_RLatLon0.09_PT024H.grib2 2026-05-06 02:48 294K
20260506T00Z_MSC_RDPS_WindDir_IsbL-0005_RLatLon0.09_PT024H.grib2 2026-05-06 02:48 374K
20260506T00Z_MSC_RDPS_WindDir_IsbL-0010_RLatLon0.09_PT024H.grib2 2026-05-06 02:48 380K
20260506T00Z_MSC_RDPS_WindDir_IsbL-0020_RLatLon0.09_PT024H.grib2 2026-05-06 02:48 403K
20260506T00Z_MSC_RDPS_WindDir_IsbL-0030_RLatLon0.09_PT024H.grib2 2026-05-06 02:48 401K
20260506T00Z_MSC_RDPS_WindDir_IsbL-0050_RLatLon0.09_PT024H.grib2 2026-05-06 02:48 422K
20260506T00Z_MSC_RDPS_WindDir_IsbL-0100_RLatLon0.09_PT024H.grib2 2026-05-06 02:48 409K
20260506T00Z_MSC_RDPS_WindDir_IsbL-0150_RLatLon0.09_PT024H.grib2 2026-05-06 02:48 404K
20260506T00Z_MSC_RDPS_WindDir_IsbL-0175_RLatLon0.09_PT024H.grib2 2026-05-06 02:48 428K
20260506T00Z_MSC_RDPS_WindDir_IsbL-0200_RLatLon0.09_PT024H.grib2 2026-05-06 02:48 451K
20260506T00Z_MSC_RDPS_WindDir_IsbL-0225_RLatLon0.09_PT024H.grib2 2026-05-06 02:48 457K
20260506T00Z_MSC_RDPS_WindDir_IsbL-0250_RLatLon0.09_PT024H.grib2 2026-05-06 02:48 456K
20260506T00Z_MSC_RDPS_WindDir_IsbL-0275_RLatLon0.09_PT024H.grib2 2026-05-06 02:48 470K
20260506T00Z_MSC_RDPS_WindDir_IsbL-0300_RLatLon0.09_PT024H.grib2 2026-05-06 02:48 469K
20260506T00Z_MSC_RDPS_WindDir_IsbL-0350_RLatLon0.09_PT024H.grib2 2026-05-06 02:48 496K
20260506T00Z_MSC_RDPS_WindDir_IsbL-0400_RLatLon0.09_PT024H.grib2 2026-05-06 02:48 515K
20260506T00Z_MSC_RDPS_WindDir_IsbL-0450_RLatLon0.09_PT024H.grib2 2026-05-06 02:48 526K
20260506T00Z_MSC_RDPS_WindDir_IsbL-0500_RLatLon0.09_PT024H.grib2 2026-05-06 02:48 543K
20260506T00Z_MSC_RDPS_WindDir_IsbL-0550_RLatLon0.09_PT024H.grib2 2026-05-06 02:48 556K
20260506T00Z_MSC_RDPS_WindDir_IsbL-0600_RLatLon0.09_PT024H.grib2 2026-05-06 02:48 583K
20260506T00Z_MSC_RDPS_WindDir_IsbL-0650_RLatLon0.09_PT024H.grib2 2026-05-06 02:48 625K
20260506T00Z_MSC_RDPS_WindDir_IsbL-0700_RLatLon0.09_PT024H.grib2 2026-05-06 02:48 673K
20260506T00Z_MSC_RDPS_WindDir_IsbL-0750_RLatLon0.09_PT024H.grib2 2026-05-06 02:48 720K
20260506T00Z_MSC_RDPS_WindDir_IsbL-0800_RLatLon0.09_PT024H.grib2 2026-05-06 02:48 781K
20260506T00Z_MSC_RDPS_WindDir_IsbL-0850_RLatLon0.09_PT024H.grib2 2026-05-06 02:48 849K
20260506T00Z_MSC_RDPS_WindDir_IsbL-0875_RLatLon0.09_PT024H.grib2 2026-05-06 02:48 872K
20260506T00Z_MSC_RDPS_WindDir_IsbL-0900_RLatLon0.09_PT024H.grib2 2026-05-06 02:48 883K
20260506T00Z_MSC_RDPS_WindDir_IsbL-0925_RLatLon0.09_PT024H.grib2 2026-05-06 02:48 892K
20260506T00Z_MSC_RDPS_WindDir_IsbL-0950_RLatLon0.09_PT024H.grib2 2026-05-06 02:48 891K
20260506T00Z_MSC_RDPS_WindDir_IsbL-0970_RLatLon0.09_PT024H.grib2 2026-05-06 02:48 894K
20260506T00Z_MSC_RDPS_WindDir_IsbL-0985_RLatLon0.09_PT024H.grib2 2026-05-06 02:48 902K
20260506T00Z_MSC_RDPS_WindDir_IsbL-1000_RLatLon0.09_PT024H.grib2 2026-05-06 02:48 915K
20260506T00Z_MSC_RDPS_WindDir_IsbL-1015_RLatLon0.09_PT024H.grib2 2026-05-06 02:48 930K
20260506T00Z_MSC_RDPS_WindGust-Max_AGL-10m_RLatLon0.09_PT024H.grib2 2026-05-06 02:48 1.0M
20260506T00Z_MSC_RDPS_WindGust-Min_AGL-10m_RLatLon0.09_PT024H.grib2 2026-05-06 02:48 1.0M
20260506T00Z_MSC_RDPS_WindGust_AGL-10m_RLatLon0.09_PT024H.grib2 2026-05-06 02:48 1.0M
20260506T00Z_MSC_RDPS_WindSpeed_AGL-10m_RLatLon0.09_PT024H.grib2 2026-05-06 02:48 833K
20260506T00Z_MSC_RDPS_WindSpeed_AGL-120m_RLatLon0.09_PT024H.grib2 2026-05-06 02:48 529K
20260506T00Z_MSC_RDPS_WindSpeed_AGL-40m_RLatLon0.09_PT024H.grib2 2026-05-06 02:48 665K
20260506T00Z_MSC_RDPS_WindSpeed_AGL-80m_RLatLon0.09_PT024H.grib2 2026-05-06 02:48 531K
20260506T00Z_MSC_RDPS_WindSpeed_IsbL-0001_RLatLon0.09_PT024H.grib2 2026-05-06 02:48 252K
20260506T00Z_MSC_RDPS_WindSpeed_IsbL-0005_RLatLon0.09_PT024H.grib2 2026-05-06 02:48 292K
20260506T00Z_MSC_RDPS_WindSpeed_IsbL-0010_RLatLon0.09_PT024H.grib2 2026-05-06 02:48 396K
20260506T00Z_MSC_RDPS_WindSpeed_IsbL-0020_RLatLon0.09_PT024H.grib2 2026-05-06 02:48 321K
20260506T00Z_MSC_RDPS_WindSpeed_IsbL-0030_RLatLon0.09_PT024H.grib2 2026-05-06 02:48 317K
20260506T00Z_MSC_RDPS_WindSpeed_IsbL-0050_RLatLon0.09_PT024H.grib2 2026-05-06 02:48 347K
20260506T00Z_MSC_RDPS_WindSpeed_IsbL-0100_RLatLon0.09_PT024H.grib2 2026-05-06 02:48 433K
20260506T00Z_MSC_RDPS_WindSpeed_IsbL-0150_RLatLon0.09_PT024H.grib2 2026-05-06 02:48 398K
20260506T00Z_MSC_RDPS_WindSpeed_IsbL-0175_RLatLon0.09_PT024H.grib2 2026-05-06 02:48 422K
20260506T00Z_MSC_RDPS_WindSpeed_IsbL-0200_RLatLon0.09_PT024H.grib2 2026-05-06 02:48 438K
20260506T00Z_MSC_RDPS_WindSpeed_IsbL-0225_RLatLon0.09_PT024H.grib2 2026-05-06 02:48 440K
20260506T00Z_MSC_RDPS_WindSpeed_IsbL-0250_RLatLon0.09_PT024H.grib2 2026-05-06 02:48 440K
20260506T00Z_MSC_RDPS_WindSpeed_IsbL-0275_RLatLon0.09_PT024H.grib2 2026-05-06 02:48 458K
20260506T00Z_MSC_RDPS_WindSpeed_IsbL-0300_RLatLon0.09_PT024H.grib2 2026-05-06 02:48 458K
20260506T00Z_MSC_RDPS_WindSpeed_IsbL-0350_RLatLon0.09_PT024H.grib2 2026-05-06 02:48 472K
20260506T00Z_MSC_RDPS_WindSpeed_IsbL-0400_RLatLon0.09_PT024H.grib2 2026-05-06 02:48 476K
20260506T00Z_MSC_RDPS_WindSpeed_IsbL-0450_RLatLon0.09_PT024H.grib2 2026-05-06 02:48 458K
20260506T00Z_MSC_RDPS_WindSpeed_IsbL-0500_RLatLon0.09_PT024H.grib2 2026-05-06 02:48 459K
20260506T00Z_MSC_RDPS_WindSpeed_IsbL-0550_RLatLon0.09_PT024H.grib2 2026-05-06 02:48 577K
20260506T00Z_MSC_RDPS_WindSpeed_IsbL-0600_RLatLon0.09_PT024H.grib2 2026-05-06 02:48 587K
20260506T00Z_MSC_RDPS_WindSpeed_IsbL-0650_RLatLon0.09_PT024H.grib2 2026-05-06 02:48 608K
20260506T00Z_MSC_RDPS_WindSpeed_IsbL-0700_RLatLon0.09_PT024H.grib2 2026-05-06 02:48 634K
20260506T00Z_MSC_RDPS_WindSpeed_IsbL-0750_RLatLon0.09_PT024H.grib2 2026-05-06 02:48 708K
20260506T00Z_MSC_RDPS_WindSpeed_IsbL-0800_RLatLon0.09_PT024H.grib2 2026-05-06 02:48 756K
20260506T00Z_MSC_RDPS_WindSpeed_IsbL-0850_RLatLon0.09_PT024H.grib2 2026-05-06 02:48 814K
20260506T00Z_MSC_RDPS_WindSpeed_IsbL-0875_RLatLon0.09_PT024H.grib2 2026-05-06 02:48 834K
20260506T00Z_MSC_RDPS_WindSpeed_IsbL-0900_RLatLon0.09_PT024H.grib2 2026-05-06 02:48 849K
20260506T00Z_MSC_RDPS_WindSpeed_IsbL-0925_RLatLon0.09_PT024H.grib2 2026-05-06 02:48 861K
20260506T00Z_MSC_RDPS_WindSpeed_IsbL-0950_RLatLon0.09_PT024H.grib2 2026-05-06 02:48 862K
20260506T00Z_MSC_RDPS_WindSpeed_IsbL-0970_RLatLon0.09_PT024H.grib2 2026-05-06 02:48 856K
20260506T00Z_MSC_RDPS_WindSpeed_IsbL-0985_RLatLon0.09_PT024H.grib2 2026-05-06 02:48 851K
20260506T00Z_MSC_RDPS_WindSpeed_IsbL-1000_RLatLon0.09_PT024H.grib2 2026-05-06 02:48 844K
20260506T00Z_MSC_RDPS_WindSpeed_IsbL-1015_RLatLon0.09_PT024H.grib2 2026-05-06 02:48 834K
20260506T00Z_MSC_RDPS_WindU_AGL-10m_RLatLon0.09_PT024H.grib2 2026-05-06 02:48 431K
20260506T00Z_MSC_RDPS_WindU_AGL-120m_RLatLon0.09_PT024H.grib2 2026-05-06 02:48 413K
20260506T00Z_MSC_RDPS_WindU_AGL-40m_RLatLon0.09_PT024H.grib2 2026-05-06 02:48 534K
20260506T00Z_MSC_RDPS_WindU_AGL-80m_RLatLon0.09_PT024H.grib2 2026-05-06 02:48 531K
20260506T00Z_MSC_RDPS_WindU_IsbL-0001_RLatLon0.09_PT024H.grib2 2026-05-06 02:48 242K
20260506T00Z_MSC_RDPS_WindU_IsbL-0005_RLatLon0.09_PT024H.grib2 2026-05-06 02:48 326K
20260506T00Z_MSC_RDPS_WindU_IsbL-0010_RLatLon0.09_PT024H.grib2 2026-05-06 02:48 296K
20260506T00Z_MSC_RDPS_WindU_IsbL-0020_RLatLon0.09_PT024H.grib2 2026-05-06 02:48 314K
20260506T00Z_MSC_RDPS_WindU_IsbL-0030_RLatLon0.09_PT024H.grib2 2026-05-06 02:48 350K
20260506T00Z_MSC_RDPS_WindU_IsbL-0050_RLatLon0.09_PT024H.grib2 2026-05-06 02:48 377K
20260506T00Z_MSC_RDPS_WindU_IsbL-0100_RLatLon0.09_PT024H.grib2 2026-05-06 02:48 332K
20260506T00Z_MSC_RDPS_WindU_IsbL-0150_RLatLon0.09_PT024H.grib2 2026-05-06 02:48 392K
20260506T00Z_MSC_RDPS_WindU_IsbL-0175_RLatLon0.09_PT024H.grib2 2026-05-06 02:48 415K
20260506T00Z_MSC_RDPS_WindU_IsbL-0200_RLatLon0.09_PT024H.grib2 2026-05-06 02:48 334K
20260506T00Z_MSC_RDPS_WindU_IsbL-0225_RLatLon0.09_PT024H.grib2 2026-05-06 02:48 335K
20260506T00Z_MSC_RDPS_WindU_IsbL-0250_RLatLon0.09_PT024H.grib2 2026-05-06 02:48 334K
20260506T00Z_MSC_RDPS_WindU_IsbL-0275_RLatLon0.09_PT024H.grib2 2026-05-06 02:48 349K
20260506T00Z_MSC_RDPS_WindU_IsbL-0300_RLatLon0.09_PT024H.grib2 2026-05-06 02:48 347K
20260506T00Z_MSC_RDPS_WindU_IsbL-0350_RLatLon0.09_PT024H.grib2 2026-05-06 02:48 358K
20260506T00Z_MSC_RDPS_WindU_IsbL-0400_RLatLon0.09_PT024H.grib2 2026-05-06 02:48 464K
20260506T00Z_MSC_RDPS_WindU_IsbL-0450_RLatLon0.09_PT024H.grib2 2026-05-06 02:48 465K
20260506T00Z_MSC_RDPS_WindU_IsbL-0500_RLatLon0.09_PT024H.grib2 2026-05-06 02:48 465K
20260506T00Z_MSC_RDPS_WindU_IsbL-0550_RLatLon0.09_PT024H.grib2 2026-05-06 02:48 467K
20260506T00Z_MSC_RDPS_WindU_IsbL-0600_RLatLon0.09_PT024H.grib2 2026-05-06 02:48 476K
20260506T00Z_MSC_RDPS_WindU_IsbL-0650_RLatLon0.09_PT024H.grib2 2026-05-06 02:48 494K
20260506T00Z_MSC_RDPS_WindU_IsbL-0700_RLatLon0.09_PT024H.grib2 2026-05-06 02:48 517K
20260506T00Z_MSC_RDPS_WindU_IsbL-0750_RLatLon0.09_PT024H.grib2 2026-05-06 02:48 543K
20260506T00Z_MSC_RDPS_WindU_IsbL-0800_RLatLon0.09_PT024H.grib2 2026-05-06 02:48 582K
20260506T00Z_MSC_RDPS_WindU_IsbL-0850_RLatLon0.09_PT024H.grib2 2026-05-06 02:48 631K
20260506T00Z_MSC_RDPS_WindU_IsbL-0875_RLatLon0.09_PT024H.grib2 2026-05-06 02:48 647K
20260506T00Z_MSC_RDPS_WindU_IsbL-0900_RLatLon0.09_PT024H.grib2 2026-05-06 02:48 650K
20260506T00Z_MSC_RDPS_WindU_IsbL-0925_RLatLon0.09_PT024H.grib2 2026-05-06 02:48 658K
20260506T00Z_MSC_RDPS_WindU_IsbL-0950_RLatLon0.09_PT024H.grib2 2026-05-06 02:48 655K
20260506T00Z_MSC_RDPS_WindU_IsbL-0970_RLatLon0.09_PT024H.grib2 2026-05-06 02:48 652K
20260506T00Z_MSC_RDPS_WindU_IsbL-0985_RLatLon0.09_PT024H.grib2 2026-05-06 02:48 648K
20260506T00Z_MSC_RDPS_WindU_IsbL-1000_RLatLon0.09_PT024H.grib2 2026-05-06 02:48 644K
20260506T00Z_MSC_RDPS_WindU_IsbL-1015_RLatLon0.09_PT024H.grib2 2026-05-06 02:48 776K
20260506T00Z_MSC_RDPS_WindV_AGL-10m_RLatLon0.09_PT024H.grib2 2026-05-06 02:48 429K
20260506T00Z_MSC_RDPS_WindV_AGL-120m_RLatLon0.09_PT024H.grib2 2026-05-06 02:48 527K
20260506T00Z_MSC_RDPS_WindV_AGL-40m_RLatLon0.09_PT024H.grib2 2026-05-06 02:48 531K
20260506T00Z_MSC_RDPS_WindV_AGL-80m_RLatLon0.09_PT024H.grib2 2026-05-06 02:48 528K
20260506T00Z_MSC_RDPS_WindV_IsbL-0001_RLatLon0.09_PT024H.grib2 2026-05-06 02:48 292K
20260506T00Z_MSC_RDPS_WindV_IsbL-0005_RLatLon0.09_PT024H.grib2 2026-05-06 02:48 286K
20260506T00Z_MSC_RDPS_WindV_IsbL-0010_RLatLon0.09_PT024H.grib2 2026-05-06 02:48 297K
20260506T00Z_MSC_RDPS_WindV_IsbL-0020_RLatLon0.09_PT024H.grib2 2026-05-06 02:48 315K
20260506T00Z_MSC_RDPS_WindV_IsbL-0030_RLatLon0.09_PT024H.grib2 2026-05-06 02:48 313K
20260506T00Z_MSC_RDPS_WindV_IsbL-0050_RLatLon0.09_PT024H.grib2 2026-05-06 02:48 341K
20260506T00Z_MSC_RDPS_WindV_IsbL-0100_RLatLon0.09_PT024H.grib2 2026-05-06 02:48 328K
20260506T00Z_MSC_RDPS_WindV_IsbL-0150_RLatLon0.09_PT024H.grib2 2026-05-06 02:48 389K
20260506T00Z_MSC_RDPS_WindV_IsbL-0175_RLatLon0.09_PT024H.grib2 2026-05-06 02:48 414K
20260506T00Z_MSC_RDPS_WindV_IsbL-0200_RLatLon0.09_PT024H.grib2 2026-05-06 02:48 430K
20260506T00Z_MSC_RDPS_WindV_IsbL-0225_RLatLon0.09_PT024H.grib2 2026-05-06 02:48 334K
20260506T00Z_MSC_RDPS_WindV_IsbL-0250_RLatLon0.09_PT024H.grib2 2026-05-06 02:48 333K
20260506T00Z_MSC_RDPS_WindV_IsbL-0275_RLatLon0.09_PT024H.grib2 2026-05-06 02:48 347K
20260506T00Z_MSC_RDPS_WindV_IsbL-0300_RLatLon0.09_PT024H.grib2 2026-05-06 02:48 344K
20260506T00Z_MSC_RDPS_WindV_IsbL-0350_RLatLon0.09_PT024H.grib2 2026-05-06 02:48 357K
20260506T00Z_MSC_RDPS_WindV_IsbL-0400_RLatLon0.09_PT024H.grib2 2026-05-06 02:48 360K
20260506T00Z_MSC_RDPS_WindV_IsbL-0450_RLatLon0.09_PT024H.grib2 2026-05-06 02:48 463K
20260506T00Z_MSC_RDPS_WindV_IsbL-0500_RLatLon0.09_PT024H.grib2 2026-05-06 02:48 464K
20260506T00Z_MSC_RDPS_WindV_IsbL-0550_RLatLon0.09_PT024H.grib2 2026-05-06 02:48 464K
20260506T00Z_MSC_RDPS_WindV_IsbL-0600_RLatLon0.09_PT024H.grib2 2026-05-06 02:48 473K
20260506T00Z_MSC_RDPS_WindV_IsbL-0650_RLatLon0.09_PT024H.grib2 2026-05-06 02:48 493K
20260506T00Z_MSC_RDPS_WindV_IsbL-0700_RLatLon0.09_PT024H.grib2 2026-05-06 02:48 514K
20260506T00Z_MSC_RDPS_WindV_IsbL-0750_RLatLon0.09_PT024H.grib2 2026-05-06 02:48 539K
20260506T00Z_MSC_RDPS_WindV_IsbL-0800_RLatLon0.09_PT024H.grib2 2026-05-06 02:48 565K
20260506T00Z_MSC_RDPS_WindV_IsbL-0850_RLatLon0.09_PT024H.grib2 2026-05-06 02:48 615K
20260506T00Z_MSC_RDPS_WindV_IsbL-0875_RLatLon0.09_PT024H.grib2 2026-05-06 02:48 633K
20260506T00Z_MSC_RDPS_WindV_IsbL-0900_RLatLon0.09_PT024H.grib2 2026-05-06 02:48 645K
20260506T00Z_MSC_RDPS_WindV_IsbL-0925_RLatLon0.09_PT024H.grib2 2026-05-06 02:48 655K
20260506T00Z_MSC_RDPS_WindV_IsbL-0950_RLatLon0.09_PT024H.grib2 2026-05-06 02:48 653K
20260506T00Z_MSC_RDPS_WindV_IsbL-0970_RLatLon0.09_PT024H.grib2 2026-05-06 02:48 650K
20260506T00Z_MSC_RDPS_WindV_IsbL-0985_RLatLon0.09_PT024H.grib2 2026-05-06 02:48 646K
20260506T00Z_MSC_RDPS_WindV_IsbL-1000_RLatLon0.09_PT024H.grib2 2026-05-06 02:48 778K
20260506T00Z_MSC_RDPS_WindV_IsbL-1015_RLatLon0.09_PT024H.grib2 2026-05-06 02:48 771K